Regional Weather Roundup
Issued by NWS

Home | Current Version | Previous Version | Text Only | Print | Product List | Glossary On
Versions: 1 2 3 4 5 6 7 8 9 10 11 12 13 14 15 16 17 18 19 20 21 22 23 24 25 26 27 28 29 30 31 32 33 34 35 36 37 38 39 40 41 42 43 44 45 46 47 48 49 50
000
ASUS43 KTOP 172259
RWRKS

WEATHER ROUNDUP FOR KANSAS
NATIONAL WEATHER SERVICE GOODLAND KS
600 PM CDT WED SEP 17 2014

NOTE:  "FAIR" INDICATES FEW OR NO CLOUDS BELOW 12,000 FEET WITH NO
SIGNIFICANT WEATHER AND/OR OBSTRUCTIONS TO VISIBILITY.

KSZ001>006-013>018-027>032-041>047-180000-
NORTHWEST KANSAS

CITY           SKY/WX    TMP DP  RH WIND       PRES   REMARKS
GOODLAND       LGT RAIN  76  59  55 SW16      29.94R
HAYS           SUNNY     86  66  51 E12       29.84F
HILL CITY      SUNNY     85  63  47 E7        29.86S
RUSSELL        SUNNY     85  67  54 E12       29.83F
$$

KSZ061>065-074>080-084>089-180000-
SOUTHWEST KANSAS

CITY           SKY/WX    TMP DP  RH WIND       PRES   REMARKS
DODGE CITY     MOSUNNY   93  48  21 S10       29.85S
ELKHART          N/A     83  59  44 SW7         N/A
GARDEN CITY    PTSUNNY   89  51  27 S8        29.87S
GREAT BEND     SUNNY     91  64  40 E9        29.81F
LIBERAL        CLOUDY    88  57  35 SW13      29.90S
$$

KSZ066>073-081>083-090>101-180000-
SOUTHEAST KANSAS

CITY           SKY/WX    TMP DP  RH WIND       PRES   REMARKS
CHANUTE        MOSUNNY   85  73  67 E9        29.84R
COFFEYVILLE    SUNNY     89  70  53 S6        29.81F
HUTCHINSON     SUNNY     91  65  41 E12       29.81F
NEWTON         SUNNY     88  66  48 E9        29.86F
PARSONS        SUNNY     89  72  56 SW5       29.84S HX  96
WICHITA INTL   MOSUNNY   96  57  27 VRB7      29.80F HX  95
WICHITA JABRA  SUNNY     94  57  28 S5        29.81F
WINFIELD       SUNNY     92  63  38 S9        29.82S
$$

KSZ007>012-019>026-033>040-048>060-102>105-180000-
NORTHEAST KANSAS

CITY           SKY/WX    TMP DP  RH WIND       PRES   REMARKS
CONCORDIA      SUNNY     79  67  66 E7        29.88R
EMPORIA        SUNNY     79  68  69 NE9       29.87R
LAWRENCE       CLOUDY    75  65  70 E6        29.89F
MANHATTAN      SUNNY     77  67  71 E12       29.87S
OLATHE IND     CLOUDY    74  67  78 E7        29.90S
OLATHE EXE     CLOUDY    71  66  84 E6        29.89S
SALINA         SUNNY     85  68  56 E13       29.84S
TOPEKA BILLARD MOSUNNY   77  68  73 E7        29.88F
TOPEKA FORBES  MOSUNNY   75  67  76 E5        29.89S
$$


USA.gov is the U.S. government's official web portal to all federal, state and local government web resources and services.